Vertical_Velocity
1 -0 -1 -2 -1 -1 -1 -1 -0 -1 -1 -1 -1 -1 -1 1 0 0 0 1 -1 -1 -1 -0 1 2 4 4 4 3 2 1 3 4 4 2 -1 -2 -2 -2 -2 -2 -1 -0 2 3 3 3 2 2 2 1 -1 -1 0 3 3 1 -1 -1 -0 -0 1 2 3 4 4 4 3
-1 -1 -0 -0 -0 0 1 1 -0 -1 -1 -1 -1 -1 -0 1 1 1 1 1 -0 -1 -0 0 1 1 2 3 3 3 2 0 2 4 5 2 -2 -3 -2 -1 -1 -1 -1 0 2 3 3 2 1 1 2 -0 -1 -1 1 3 2 0 -1 -0 0 0 1 2 3 4 4 3 3
-0 1 1 -0 -1 -1 -1 -1 -2 -1 -1 -1 -1 -1 -1 0 1 1 1 1 1 0 0 0 0 1 1 2 3 2 1 -1 0 2 3 0 -1 -0 -0 -1 -1 -1 0 1 2 3 2 0 1 2 2 -0 -1 1 3 4 2 1 1 1 1 1 1 3 3 4 3 3 4
0 0 -1 -2 -3 -3 -3 -3 -2 -1 -1 -1 -1 -1 -1 0 1 2 2 2 1 0 -0 0 1 1 2 2 2 1 0 -1 -1 -1 -1 -0 3 5 3 -1 -2 -1 1 3 3 2 -0 -1 -0 1 1 -1 1 4 5 4 2 2 3 4 3 3 3 3 3 3 3 4 5
-1 -1 -2 -2 -2 -1 -0 -0 -0 -0 -1 -1 -1 -1 -1 0 2 2 1 1 -1 -1 0 2 2 3 3 3 2 1 0 -1 -2 -3 -2 3 8 9 6 -1 -2 1 4 5 3 0 -2 -3 -1 0 1 1 4 6 5 3 2 3 5 5 5 4 3 3 2 3 4 5 3
-1 -0 1 1 1 2 2 1 0 -0 -1 -1 -1 -1 -1 0 1 0 -0 -1 -1 0 2 3 3 3 4 3 2 1 1 0 -2 -3 -1 6 9 9 6 0 1 4 6 5 2 -1 -2 -2 1 3 6 6 7 6 4 2 2 3 5 8 7 6 5 3 2 2 3 2 -0
-0 1 2 2 2 2 1 -0 0 -0 -1 -1 -1 -1 -1 -0 -0 -0 -0 0 1 2 3 3 3 3 2 2 1 1 2 1 -3 -2 1 7 8 6 4 2 4 5 5 2 0 -1 -0 1 4 6 6 5 5 4 2 1 1 3 6 7 5 5 6 4 2 1 -0 -1 -1
2 2 1 0 1 0 -0 -1 -1 -1 -1 -2 -1 -1 -0 0 0 1 1 2 2 2 2 2 2 1 1 0 0 1 2 1 -2 -0 3 7 6 4 3 3 3 2 1 -1 -0 1 3 5 6 6 5 4 3 2 1 -0 2 4 6 5 4 4 5 4 2 -0 -2 -1 -0
3 3 2 1 1 1 -0 -1 -1 -2 -2 -2 -1 0 1 1 1 1 1 1 1 2 3 2 2 1 1 1 1 2 3 2 1 2 3 5 4 3 1 1 0 -1 -2 -1 2 5 6 7 6 5 4 3 2 1 1 2 5 5 5 4 3 4 4 3 0 -1 -2 -1 0
1 2 2 2 2 1 1 0 -0 -1 -1 -1 0 1 1 1 1 1 1 1 3 3 3 2 2 1 2 2 2 3 3 3 2 2 2 3 2 0 -1 -2 -3 -2 -0 2 5 6 6 6 5 3 2 2 3 4 5 6 6 5 4 3 3 2 1 -0 -2 -2 -1 0 0
1 1 1 1 1 1 1 1 0 -0 -0 1 1 2 2 1 1 1 1 2 3 3 2 2 2 2 2 3 2 2 2 2 1 1 1 1 -0 -1 -2 -3 -2 0 2 4 4 4 4 4 3 2 2 3 4 5 5 5 3 2 2 1 1 -0 -1 -2 -1 -0 0 1 0
3 2 2 1 1 1 1 0 -1 -1 -0 1 2 2 2 1 1 0 1 2 2 2 2 3 2 2 2 1 0 -0 0 1 -0 -1 -1 -1 -1 -2 -1 0 2 3 4 3 3 3 3 3 3 2 3 3 3 3 3 2 1 0 -1 -1 -1 -2 -1 -1 0 1 1 0 0
3 3 2 2 2 2 1 -0 -1 -1 0 1 2 2 2 1 0 0 0 1 2 3 3 3 3 1 -0 -2 -3 -2 -1 -0 -2 -2 -2 -1 -1 -0 1 3 4 5 4 4 4 4 4 2 2 1 1 2 2 2 1 0 -1 -2 -2 -2 -1 -0 1 1 1 1 1 0 -0
3 2 2 1 2 1 1 0 0 0 1 2 3 2 1 1 0 0 1 2 3 3 3 2 1 -1 -2 -3 -3 -2 -2 -2 -3 -2 -1 1 1 2 3 5 5 4 4 4 4 3 2 0 0 0 1 1 1 0 -1 -2 -2 -2 -1 0 1 1 2 1 1 1 0 0 -0
3 2 2 2 2 1 1 1 1 1 2 3 2 1 1 1 1 1 2 3 2 1 0 -1 -2 -2 -2 -2 -2 -2 -3 -3 -2 -0 2 2 2 3 4 4 3 3 2 2 1 1 0 -1 -0 -0 0 0 -1 -2 -2 -2 -1 -0 1 2 2 1 1 0 0 0 -0 -1 -1
2 2 2 3 2 1 1 1 1 1 2 2 1 1 2 2 2 2 1 0 -1 -1 -2 -3 -3 -3 -2 -2 -2 -3 -3 -2 1 2 3 2 2 3 3 2 1 0 -1 -1 -1 -0 0 1 0 -0 -1 -1 -2 -2 -1 -1 0 1 1 1 0 -0 -1 -1 -0 -1 -1 -1 -1
1 2 2 2 2 1 1 1 1 1 1 1 1 2 2 1 1 0 -1 -3 -3 -2 -2 -2 -3 -3 -3 -4 -3 -2 -1 1 3 3 1 0 0 1 1 0 -1 -1 -1 -1 0 1 1 1 0 -0 -1 -1 -0 0 1 1 1 0 0 -0 -1 -1 -1 -1 -0 -0 -1 -1 -1
1 2 2 3 2 2 2 1 1 1 1 1 2 1 0 -1 -2 -2 -2 -2 -2 -2 -2 -3 -2 -2 -3 -5 -2 0 2 3 2 1 -0 -1 -0 -0 -0 -1 -1 -1 0 1 1 1 1 0 0 0 1 1 1 2 1 1 0 -0 -1 -1 -0 -0 -0 0 0 -0 -0 -1 -1
1 2 3 3 2 2 2 1 1 1 1 1 -0 -1 -2 -2 -3 -3 -2 1 1 -0 -2 -4 -2 -1 -1 -3 -1 2 4 2 0 -1 -1 -1 -0 -0 -0 -1 0 1 2 1 -0 -0 -0 0 1 2 2 2 2 1 1 -0 -1 -1 -1 -0 0 0 0 1 0 0 -0 -1 -1
2 2 2 2 3 3 3 1 1 -0 -1 -1 -2 -2 -2 -2 -2 -2 -0 2 2 1 -1 -4 -3 -1 -0 -1 1 3 4 2 0 -1 -1 -1 -0 -0 0 1 3 3 2 0 -1 -0 1 2 2 2 2 2 1 -0 -1 -1 -1 -0 0 1 1 1 1 0 0 -0 -1 -1 -0
3 2 2 3 3 2 1 0 -0 -1 -2 -2 -1 -1 -1 -1 0 1 2 3 1 -0 -1 -2 -2 -1 -1 -1 0 2 3 3 1 -0 -1 -1 0 2 3 4 4 3 2 0 0 1 1 2 2 1 1 -0 -1 -1 -1 -0 0 1 1 1 1 1 0 -0 -1 -1 -1 -0 -1
4 4 4 4 2 0 -1 -1 -1 -2 -2 -2 -1 -0 -0 0 2 4 4 3 0 -1 -2 -1 -0 -1 -2 -2 -1 0 1 1 1 0 0 1 3 5 6 5 4 2 1 0 1 1 1 1 1 0 -0 -1 -1 -0 0 1 1 1 1 1 0 -0 -0 -1 -1 -1 -1 -1 -1
4 4 3 2 0 -0 -1 -1 -1 -1 -1 -1 0 1 1 2 3 4 3 1 -2 -3 -2 -1 1 0 -1 -1 1 1 1 -1 -1 1 3 5 6 6 6 4 2 1 1 1 1 1 1 1 0 0 -0 -0 0 1 1 1 1 1 1 0 -0 -0 -1 -1 -1 -1 -1 -2 -2
3 2 1 1 1 1 0 -0 -1 -1 -0 0 1 1 2 3 3 3 1 -2 -3 -3 -2 0 2 2 2 3 5 4 1 -1 0 4 7 9 8 5 3 1 1 1 1 1 1 1 1 1 1 0 0 0 0 1 1 1 1 0 0 -0 -0 -0 -1 -1 -1 -1 -1 -2 -1
1 1 1 1 1 1 0 -0 -1 -0 0 1 1 2 3 3 1 -1 -3 -4 -4 -3 -1 1 4 5 6 7 6 5 3 3 5 7 8 7 5 2 -0 -1 -1 -0 0 1 1 1 1 1 1 0 0 0 0 0 0 0 0 0 0 0 -0 -1 -1 -1 -1 -1 -1 -1 -1
2 3 2 1 0 0 0 -0 -0 -0 0 1 2 3 3 1 -2 -3 -3 -2 -2 -1 2 5 7 8 8 7 6 5 6 8 9 7 4 1 0 -1 -2 -2 -1 -0 0 1 0 0 0 0 0 0 0 0 0 0 0 0 0 0 0 0 -0 -1 -1 -1 -1 -1 -1 -1 -1
3 3 2 0 -0 -0 0 0 1 1 2 2 3 3 1 -3 -2 -0 1 0 -1 1 4 8 8 8 7 6 6 5 5 6 5 4 2 0 -1 -2 -2 -1 -0 1 1 0 0 0 -0 -0 -0 -0 0 0 -0 0 0 1 1 1 0 -0 -0 -1 -1 -1 -1 -1 -1 -1 -1
2 2 1 0 0 0 1 2 2 3 3 2 2 -1 -3 -3 1 4 4 0 -1 2 6 8 7 6 5 5 4 3 2 1 1 1 1 1 -0 -1 -1 -0 0 1 1 0 0 -0 -0 -0 -0 0 0 -0 0 0 1 1 1 0 0 -0 -1 -1 -1 -1 -1 -1 -1 -0 -0
1 0 0 -0 0 1 2 3 3 2 1 -0 -2 -3 -2 1 4 5 3 -0 1 4 6 5 5 4 3 2 2 1 0 -1 -0 -0 0 0 0 0 0 0 0 0 1 0 0 -0 -0 -0 -0 0 0 0 1 1 1 1 1 0 -0 -0 -1 -1 -1 -1 -1 -1 -0 -0 -0
0 -0 -1 -1 0 2 3 2 1 0 -1 -3 -3 -2 1 5 5 3 1 -0 3 5 5 3 2 2 1 0 -0 -1 -1 -1 0 1 1 0 0 -0 -0 -0 0 0 0 0 0 -0 -0 -0 -0 0 1 1 1 1 1 1 0 0 -0 -1 -1 -1 -1 -1 -1 -0 -0 -0 -1
0 -0 -1 -0 1 1 2 2 0 -1 -2 -2 0 2 4 5 3 1 0 -1 3 5 5 3 1 0 0 -0 -1 -1 -1 -1 0 1 1 1 0 -0 -1 -0 0 0 0 0 0 0 -0 0 0 1 1 1 1 1 0 0 -0 -1 -1 -1 -1 -1 -1 -1 -1 -1 -1 -1 -1
-0 -0 -0 -0 0 0 1 0 -2 -2 -0 3 4 5 4 2 1 0 0 1 4 4 4 2 1 -0 -1 -1 -1 -0 -0 -0 0 0 1 1 0 -0 -1 -0 -0 -0 0 0 0 0 0 0 1 1 1 0 0 -0 -0 -1 -1 -1 -1 -1 -1 -1 -1 -1 -1 -1 -1 -1 -1
-1 -1 -1 -1 -1 -1 -1 -2 -3 -1 3 6 5 4 2 1 1 1 1 3 4 3 1 0 -1 -1 -2 -2 -1 -0 0 1 1 0 0 0 -0 -0 -1 -1 -1 -0 -0 0 0 0 1 1 1 0 0 -0 -1 -1 -1 -1 -2 -2 -2 -1 -1 -1 -1 -1 -1 -1 -1 -1 -1
-1 -1 -1 -1 -2 -2 -3 -3 -1 2 4 5 4 3 2 1 1 0 1 2 2 1 0 0 -0 -0 -0 0 -0 -0 -0 0 1 0 0 -0 -0 -0 -1 -1 -1 -0 -0 0 0 1 1 1 0 -0 -1 -1 -1 -1 -2 -2 -2 -2 -2 -1 -1 -1 -1 -1 -1 -1 -1 -1 -2
-2 -2 -2 -1 -2 -3 -3 -1 2 4 4 2 2 3 3 2 1 -0 -1 -1 -1 -1 -0 0 0 1 1 2 2 2 1 -0 0 -0 -0 -1 -0 -0 -0 -0 -0 -0 0 0 1 1 1 1 0 -0 -1 -1 -1 -2 -2 -2 -2 -1 -1 -1 -1 -1 -1 -1 -1 -1 -1 -2 -2
-2 -3 -3 -2 -2 -2 -1 1 3 4 3 1 1 1 2 1 1 1 0 -1 -2 -2 -1 -1 0 1 1 1 2 2 2 0 -1 -1 -1 -0 -0 -0 0 -0 -0 -0 0 1 1 1 1 0 -0 -1 -1 -1 -1 -2 -2 -1 -1 -1 -1 -0 -0 -1 -1 -1 -1 -1 -1 -2 -2
-1 -3 -4 -3 -2 -1 0 2 2 2 1 1 1 0 -0 -1 0 1 2 0 -1 -1 -1 -0 1 1 1 0 -0 0 1 1 0 -1 -1 -0 0 1 0 0 -0 0 0 1 1 1 0 0 -0 -1 -1 -1 -1 -1 -1 -1 -1 -0 -0 -0 -1 -1 -1 -1 -1 -1 -1 -1 -2
-0 -1 -2 -3 -3 -1 1 2 2 1 -0 0 1 1 0 -1 -1 0 1 1 -0 -1 -0 1 1 1 1 0 -1 -1 0 1 1 0 -0 -0 1 2 1 1 0 0 0 1 1 1 0 -0 -1 -1 -1 -1 -1 -1 -1 -1 -0 -0 -0 -1 -1 -1 -1 -1 -1 -1 -1 -1 -1
-0 -0 -1 -1 -2 -1 1 2 2 0 -1 -1 0 1 1 0 -1 -0 1 2 2 1 0 0 0 1 1 0 -0 -0 -0 1 1 1 1 0 2 3 3 1 0 0 0 0 0 0 0 -0 -1 -1 -1 -1 -1 -1 -0 -0 -0 -1 -1 -1 -1 -1 -1 -1 -1 -1 -1 -1 -1
-0 0 1 1 -1 -2 -1 1 2 1 0 -1 -0 0 0 -1 -1 -1 -0 2 4 4 3 1 -0 -0 0 0 0 -1 -1 -0 1 2 2 1 2 3 3 2 1 0 -0 0 0 0 -0 -1 -1 -1 -1 -1 -1 -1 -0 -0 -1 -1 -1 -1 -1 -1 -1 -1 -1 -1 -1 -1 -1
0 2 3 3 0 -2 -2 -1 1 2 2 1 -0 -1 -1 -1 -1 -1 -1 0 3 4 3 1 -0 -0 -0 0 0 -0 -1 -1 -0 1 2 1 2 2 3 2 1 0 -0 -0 -0 -0 -1 -1 -1 -1 -1 -1 -1 -1 -1 -0 -0 -1 -1 -1 -1 -1 -1 -1 -1 -1 -1 -1 -1
Height
1458 1459 1460 1462 1463 1464 1465 1466 1467 1468 1469 1471 1472 1473 1475 1477 1478 1480 1481 1482 1483 1484 1485 1486 1486 1487 1488 1489 1489 1490 1491 1492 1493 1495 1496 1497 1498 1499 1500 1502 1503 1504 1506 1507 1508 1508 1509 1510 1510 1511 1511 1511 1511 1512 1512 1512 1513 1513 1514 1515 1515 1516 1516 1516 1516 1516 1515 1515 1515
1457 1458 1459 1461 1462 1463 1464 1466 1467 1468 1468 1469 1471 1473 1475 1476 1478 1479 1480 1482 1483 1483 1484 1485 1486 1487 1488 1488 1489 1490 1491 1492 1493 1494 1496 1497 1498 1498 1500 1501 1503 1504 1505 1506 1507 1508 1508 1509 1509 1509 1509 1510 1510 1511 1511 1511 1511 1512 1513 1514 1514 1515 1515 1515 1515 1515 1515 1515 1514
1456 1457 1458 1460 1461 1462 1463 1464 1465 1466 1467 1468 1470 1472 1474 1476 1478 1479 1480 1481 1482 1483 1483 1484 1485 1486 1487 1488 1489 1490 1491 1491 1493 1494 1495 1496 1497 1498 1499 1501 1502 1503 1504 1505 1506 1507 1508 1508 1508 1508 1509 1509 1510 1510 1510 1510 1511 1512 1513 1513 1513 1514 1514 1514 1514 1514 1514 1514 1513
1454 1456 1457 1458 1459 1460 1462 1463 1464 1465 1466 1468 1470 1472 1474 1476 1477 1478 1479 1480 1481 1482 1482 1483 1484 1485 1486 1487 1488 1489 1490 1491 1492 1493 1494 1495 1496 1498 1499 1500 1502 1503 1503 1504 1505 1506 1506 1507 1507 1508 1508 1509 1509 1509 1509 1509 1510 1511 1512 1512 1513 1513 1513 1513 1513 1513 1513 1513 1513
1453 1454 1456 1457 1458 1459 1461 1462 1463 1465 1466 1468 1470 1472 1473 1475 1476 1478 1478 1479 1480 1481 1482 1483 1483 1484 1486 1487 1488 1489 1490 1491 1492 1493 1494 1495 1496 1497 1498 1500 1501 1502 1502 1503 1504 1505 1505 1506 1506 1507 1507 1508 1508 1508 1508 1509 1510 1511 1511 1511 1512 1512 1512 1512 1512 1512 1512 1512 1512
1452 1453 1455 1456 1458 1459 1460 1462 1463 1464 1466 1468 1469 1471 1473 1474 1476 1477 1477 1478 1479 1480 1481 1482 1483 1484 1485 1486 1487 1488 1489 1490 1491 1492 1493 1494 1495 1497 1498 1499 1500 1501 1502 1503 1503 1504 1505 1505 1505 1506 1506 1506 1507 1508 1508 1509 1510 1510 1511 1511 1511 1511 1511 1511 1511 1512 1512 1512 1512
1451 1452 1454 1455 1457 1458 1460 1461 1462 1464 1465 1467 1469 1471 1472 1474 1475 1476 1477 1478 1479 1479 1480 1481 1482 1483 1484 1486 1487 1488 1488 1490 1491 1492 1493 1494 1495 1496 1497 1498 1499 1500 1501 1502 1503 1504 1504 1504 1504 1505 1506 1506 1507 1508 1508 1509 1509 1510 1510 1510 1510 1511 1511 1511 1511 1511 1511 1511 1511
1450 1452 1453 1454 1456 1458 1459 1460 1462 1463 1465 1467 1468 1470 1472 1473 1474 1475 1476 1477 1478 1479 1480 1481 1482 1483 1484 1485 1486 1487 1488 1489 1491 1492 1493 1494 1494 1496 1497 1498 1499 1500 1501 1502 1503 1503 1503 1504 1504 1505 1505 1506 1507 1508 1508 1508 1509 1509 1509 1510 1510 1510 1510 1510 1510 1510 1510 1510 1510
1449 1451 1453 1454 1455 1457 1458 1459 1461 1463 1464 1466 1468 1470 1472 1473 1474 1475 1476 1477 1478 1479 1480 1481 1482 1483 1484 1485 1486 1487 1488 1489 1490 1491 1493 1493 1494 1495 1497 1498 1499 1500 1501 1502 1502 1503 1503 1504 1504 1505 1505 1506 1507 1507 1508 1508 1508 1509 1509 1509 1510 1510 1510 1509 1509 1509 1509 1509 1508
1448 1450 1452 1453 1454 1456 1458 1459 1461 1462 1464 1466 1468 1470 1471 1473 1474 1475 1476 1477 1478 1478 1479 1480 1482 1483 1483 1484 1485 1486 1488 1489 1490 1491 1492 1493 1494 1495 1497 1498 1499 1500 1501 1501 1502 1503 1503 1504 1504 1505 1505 1506 1506 1507 1507 1508 1508 1508 1509 1509 1509 1509 1509 1508 1508 1508 1508 1508 1508
1447 1449 1450 1452 1453 1455 1457 1458 1460 1462 1464 1466 1468 1470 1471 1472 1473 1474 1475 1476 1477 1478 1479 1480 1481 1482 1483 1484 1485 1486 1487 1488 1489 1491 1492 1493 1494 1496 1497 1498 1499 1499 1500 1501 1502 1502 1503 1503 1504 1504 1505 1505 1506 1506 1507 1507 1508 1508 1508 1508 1508 1508 1508 1508 1507 1507 1507 1507 1507
1447 1448 1450 1451 1453 1455 1456 1458 1460 1462 1464 1466 1468 1469 1470 1471 1473 1473 1475 1476 1477 1478 1479 1480 1481 1482 1483 1483 1484 1485 1487 1488 1489 1491 1492 1493 1495 1496 1497 1498 1498 1499 1500 1501 1502 1502 1503 1503 1503 1504 1504 1505 1505 1506 1506 1507 1507 1507 1507 1507 1507 1507 1507 1507 1507 1507 1506 1506 1506
1446 1448 1449 1451 1453 1454 1456 1458 1460 1462 1464 1466 1467 1468 1469 1470 1472 1473 1474 1475 1477 1478 1479 1480 1480 1481 1482 1483 1483 1485 1487 1488 1489 1491 1492 1493 1494 1495 1496 1497 1498 1499 1500 1500 1501 1501 1502 1502 1503 1503 1504 1504 1505 1505 1506 1506 1506 1506 1507 1507 1507 1507 1506 1506 1506 1506 1506 1506 1506
1446 1448 1449 1451 1452 1454 1456 1458 1460 1462 1464 1465 1467 1468 1468 1470 1471 1473 1474 1475 1476 1477 1478 1479 1480 1481 1482 1483 1484 1485 1487 1488 1489 1490 1492 1493 1494 1495 1496 1497 1498 1498 1499 1500 1500 1501 1501 1502 1502 1503 1503 1504 1504 1505 1505 1505 1506 1506 1506 1506 1506 1506 1506 1506 1506 1506 1506 1505 1505
1445 1447 1448 1450 1452 1454 1455 1458 1460 1462 1463 1465 1466 1467 1468 1469 1471 1472 1473 1474 1475 1476 1477 1478 1479 1480 1482 1483 1484 1485 1487 1488 1489 1490 1491 1493 1494 1495 1496 1497 1498 1498 1499 1500 1500 1501 1501 1502 1502 1503 1503 1503 1504 1504 1504 1505 1505 1505 1505 1506 1506 1506 1506 1506 1506 1505 1505 1504 1504
1445 1447 1448 1450 1452 1453 1455 1458 1459 1461 1463 1463 1465 1466 1468 1469 1470 1471 1472 1473 1474 1475 1476 1478 1479 1480 1482 1483 1484 1485 1487 1488 1489 1490 1492 1493 1494 1495 1496 1497 1498 1498 1499 1499 1500 1500 1501 1501 1502 1502 1503 1503 1503 1503 1504 1504 1504 1505 1505 1505 1505 1505 1505 1505 1505 1504 1504 1504 1503
1444 1446 1448 1450 1451 1453 1455 1457 1459 1460 1461 1463 1464 1465 1467 1468 1469 1470 1471 1472 1473 1475 1476 1477 1479 1480 1481 1483 1484 1485 1487 1488 1489 1490 1492 1493 1494 1495 1496 1497 1497 1498 1498 1499 1499 1500 1500 1501 1501 1502 1502 1503 1503 1503 1503 1504 1504 1504 1504 1504 1504 1504 1504 1504 1504 1504 1503 1503 1503
1444 1446 1448 1450 1451 1453 1455 1457 1458 1459 1460 1462 1463 1464 1465 1466 1468 1469 1471 1472 1473 1475 1476 1477 1479 1480 1481 1483 1484 1485 1486 1488 1489 1490 1492 1493 1494 1495 1495 1496 1497 1498 1498 1498 1499 1500 1500 1501 1501 1502 1502 1502 1503 1503 1503 1503 1503 1503 1503 1504 1504 1504 1504 1504 1503 1503 1503 1503 1503
1443 1445 1448 1449 1451 1453 1455 1456 1457 1458 1460 1461 1462 1463 1465 1466 1467 1469 1471 1472 1473 1475 1476 1477 1479 1480 1481 1483 1484 1485 1486 1488 1489 1490 1491 1492 1493 1494 1495 1496 1496 1497 1498 1498 1499 1499 1500 1501 1501 1501 1502 1502 1502 1502 1503 1503 1503 1503 1503 1503 1503 1503 1503 1503 1503 1503 1503 1503 1503
1443 1445 1447 1449 1451 1453 1454 1455 1456 1458 1459 1460 1462 1463 1464 1466 1468 1469 1471 1472 1473 1475 1476 1477 1478 1480 1481 1483 1484 1485 1486 1487 1488 1489 1491 1492 1493 1494 1494 1495 1496 1497 1498 1498 1499 1499 1500 1501 1501 1501 1502 1502 1502 1502 1502 1502 1502 1503 1503 1503 1503 1503 1503 1503 1503 1503 1503 1503 1503
1443 1445 1447 1449 1451 1452 1453 1454 1455 1457 1458 1460 1462 1463 1465 1467 1468 1469 1471 1472 1473 1475 1476 1478 1478 1480 1481 1482 1483 1484 1485 1487 1488 1489 1490 1492 1493 1493 1494 1495 1496 1497 1498 1498 1499 1499 1500 1500 1501 1501 1501 1501 1502 1502 1502 1502 1502 1503 1503 1503 1503 1502 1502 1502 1502 1503 1503 1503 1503
1443 1445 1447 1448 1449 1450 1451 1453 1455 1457 1458 1460 1462 1463 1465 1467 1468 1469 1471 1472 1473 1475 1476 1478 1478 1480 1481 1482 1483 1484 1485 1486 1488 1489 1490 1491 1492 1493 1494 1495 1496 1497 1498 1498 1499 1499 1500 1500 1501 1501 1501 1501 1501 1501 1502 1502 1502 1502 1502 1502 1502 1502 1502 1502 1502 1502 1502 1502 1502
1443 1444 1446 1446 1447 1448 1450 1453 1455 1457 1459 1460 1462 1464 1465 1467 1468 1469 1471 1472 1473 1475 1476 1477 1478 1480 1481 1482 1483 1484 1485 1487 1488 1489 1490 1491 1492 1493 1494 1495 1496 1497 1498 1498 1499 1499 1499 1500 1500 1500 1501 1501 1501 1501 1502 1502 1502 1502 1502 1502 1502 1502 1502 1502 1502 1502 1502 1502 1502
1442 1443 1443 1445 1446 1448 1450 1453 1455 1457 1459 1460 1462 1463 1465 1466 1468 1469 1471 1472 1473 1475 1476 1477 1478 1479 1480 1482 1483 1484 1485 1487 1488 1489 1490 1491 1493 1493 1494 1495 1496 1497 1498 1498 1499 1499 1499 1500 1500 1500 1500 1501 1501 1501 1502 1502 1502 1502 1502 1502 1502 1502 1502 1502 1502 1502 1502 1502 1502
1440 1441 1443 1444 1446 1448 1451 1453 1455 1457 1459 1460 1462 1463 1465 1466 1468 1469 1471 1472 1473 1475 1476 1477 1478 1479 1480 1481 1483 1485 1486 1487 1488 1489 1490 1491 1492 1493 1494 1495 1496 1497 1498 1498 1498 1499 1499 1500 1500 1500 1500 1501 1501 1501 1501 1502 1502 1502 1502 1502 1502 1502 1502 1502 1502 1502 1502 1502 1502
1439 1441 1443 1444 1447 1449 1451 1453 1455 1457 1458 1460 1462 1463 1464 1466 1468 1469 1470 1472 1473 1474 1476 1476 1477 1478 1480 1482 1483 1485 1486 1488 1488 1489 1490 1491 1492 1493 1494 1495 1496 1497 1497 1498 1498 1499 1499 1499 1500 1500 1500 1501 1501 1501 1501 1502 1502 1502 1502 1502 1502 1502 1502 1502 1502 1502 1502 1502 1502
1439 1441 1443 1445 1448 1450 1452 1453 1455 1457 1458 1460 1462 1463 1465 1466 1468 1469 1470 1471 1473 1474 1475 1476 1477 1479 1481 1482 1484 1485 1486 1488 1488 1489 1490 1491 1492 1493 1494 1495 1496 1497 1497 1498 1498 1498 1499 1499 1500 1500 1500 1501 1501 1501 1501 1502 1502 1502 1502 1502 1502 1502 1502 1502 1502 1502 1502 1502 1502
1439 1441 1443 1446 1448 1450 1452 1453 1455 1457 1458 1460 1462 1463 1465 1466 1468 1468 1470 1471 1473 1474 1475 1476 1478 1479 1481 1483 1484 1485 1486 1488 1488 1489 1490 1491 1492 1493 1494 1495 1496 1496 1497 1498 1498 1498 1499 1499 1500 1500 1501 1501 1501 1501 1501 1502 1502 1502 1502 1502 1502 1502 1502 1502 1502 1502 1502 1502 1502
1439 1441 1443 1446 1448 1450 1452 1453 1455 1457 1459 1460 1462 1464 1465 1466 1467 1468 1470 1472 1473 1474 1475 1476 1478 1480 1481 1483 1484 1485 1486 1488 1488 1489 1490 1492 1493 1493 1494 1495 1496 1496 1497 1498 1498 1498 1499 1499 1500 1500 1501 1501 1501 1501 1502 1502 1502 1502 1502 1502 1502 1502 1502 1502 1502 1502 1502 1502 1502
1439 1442 1444 1446 1448 1450 1452 1454 1455 1457 1459 1461 1462 1463 1465 1466 1467 1469 1470 1472 1473 1474 1475 1477 1478 1480 1481 1483 1484 1485 1486 1488 1488 1490 1491 1492 1493 1493 1494 1495 1496 1496 1497 1498 1498 1498 1499 1499 1500 1500 1501 1501 1501 1501 1502 1502 1502 1502 1502 1502 1502 1502 1502 1502 1502 1502 1502 1502 1502
1440 1442 1444 1446 1448 1450 1452 1454 1456 1458 1459 1461 1462 1463 1464 1466 1467 1469 1471 1472 1473 1475 1476 1478 1479 1480 1482 1483 1484 1485 1486 1488 1489 1490 1491 1492 1493 1493 1494 1495 1496 1496 1497 1498 1498 1499 1499 1500 1500 1500 1501 1501 1501 1501 1502 1502 1502 1502 1502 1502 1502 1502 1502 1502 1502 1502 1502 1502 1502
1440 1442 1444 1446 1448 1450 1452 1454 1456 1458 1459 1460 1461 1462 1464 1466 1468 1469 1471 1473 1474 1475 1477 1478 1479 1481 1482 1483 1484 1485 1487 1488 1489 1490 1491 1492 1493 1493 1494 1495 1496 1497 1497 1498 1498 1499 1499 1500 1500 1500 1501 1501 1501 1501 1501 1501 1502 1502 1502 1502 1502 1502 1502 1502 1502 1502 1502 1502 1502
1440 1442 1444 1446 1448 1450 1453 1454 1456 1458 1458 1459 1461 1462 1464 1466 1468 1470 1472 1473 1475 1476 1477 1478 1480 1481 1482 1483 1484 1485 1487 1488 1489 1490 1491 1492 1493 1493 1494 1495 1496 1497 1497 1498 1498 1499 1499 1500 1500 1500 1501 1501 1501 1501 1501 1501 1501 1501 1501 1501 1502 1502 1502 1502 1502 1502 1502 1502 1502
1440 1442 1444 1446 1448 1450 1452 1454 1456 1457 1458 1460 1461 1463 1465 1466 1468 1470 1472 1473 1475 1476 1478 1479 1480 1481 1482 1483 1484 1485 1487 1488 1489 1490 1491 1492 1493 1494 1494 1495 1496 1497 1497 1498 1498 1499 1499 1500 1500 1500 1501 1501 1501 1501 1501 1501 1501 1501 1501 1502 1502 1502 1502 1502 1502 1502 1502 1502 1501
1439 1442 1444 1446 1448 1450 1452 1453 1455 1456 1458 1460 1462 1463 1465 1467 1468 1470 1472 1473 1475 1476 1478 1479 1480 1481 1483 1484 1485 1486 1487 1488 1489 1490 1491 1492 1493 1494 1495 1495 1496 1497 1498 1498 1499 1499 1500 1500 1500 1501 1501 1501 1501 1501 1501 1501 1501 1502 1502 1502 1502 1502 1502 1502 1502 1502 1502 1502 1501
1439 1441 1443 1446 1448 1450 1451 1453 1454 1456 1458 1459 1461 1463 1465 1468 1469 1471 1472 1473 1475 1476 1478 1479 1480 1481 1483 1484 1485 1486 1487 1488 1489 1490 1492 1493 1493 1494 1495 1496 1496 1497 1498 1498 1499 1499 1500 1500 1501 1501 1501 1501 1501 1501 1501 1502 1502 1502 1502 1502 1502 1502 1502 1502 1502 1502 1502 1502 1501
1439 1441 1443 1445 1447 1449 1451 1453 1454 1456 1458 1460 1462 1463 1466 1468 1469 1471 1473 1473 1475 1476 1478 1479 1480 1481 1483 1484 1485 1486 1488 1489 1490 1491 1492 1493 1494 1494 1495 1496 1496 1497 1498 1499 1499 1500 1500 1501 1501 1501 1501 1501 1502 1502 1502 1502 1502 1502 1502 1502 1502 1502 1502 1502 1502 1502 1502 1502 1502
1439 1441 1443 1445 1447 1449 1451 1453 1454 1456 1458 1460 1462 1464 1466 1468 1469 1471 1473 1474 1475 1476 1478 1479 1480 1482 1483 1484 1485 1487 1488 1489 1490 1491 1492 1493 1494 1495 1496 1496 1497 1497 1498 1499 1500 1500 1501 1501 1501 1502 1502 1502 1502 1502 1502 1502 1502 1502 1502 1502 1502 1502 1502 1502 1502 1502 1502 1502 1502
1440 1442 1443 1445 1447 1449 1451 1453 1455 1457 1459 1461 1463 1465 1466 1468 1469 1471 1473 1474 1475 1477 1478 1479 1480 1482 1483 1484 1485 1487 1488 1489 1491 1492 1493 1493 1494 1496 1496 1497 1497 1498 1498 1499 1500 1500 1501 1501 1502 1502 1502 1502 1502 1502 1503 1503 1503 1503 1502 1502 1502 1502 1502 1502 1502 1502 1502 1502 1502
1440 1442 1444 1445 1447 1449 1451 1453 1456 1458 1459 1461 1463 1465 1467 1468 1469 1471 1473 1474 1476 1477 1478 1479 1481 1482 1483 1484 1486 1487 1488 1489 1491 1492 1493 1494 1495 1496 1497 1497 1498 1498 1499 1500 1500 1501 1501 1501 1502 1502 1502 1502 1502 1503 1503 1503 1503 1503 1502 1502 1502 1502 1502 1502 1502 1502 1502 1502 1502
1441 1443 1444 1446 1448 1450 1452 1454 1456 1458 1460 1462 1463 1465 1467 1468 1470 1471 1473 1474 1476 1477 1478 1479 1481 1482 1483 1484 1486 1487 1488 1489 1491 1492 1493 1494 1495 1496 1497 1498 1498 1498 1499 1500 1500 1501 1501 1502 1502 1502 1502 1502 1503 1503 1503 1503 1503 1503 1503 1502 1503 1503 1503 1503 1503 1503 1503 1502 1502